Time [hr],Date,AE,AE1ch,AE2ch,Temperature,Humidity,Vaper Deficit,Illuminance,CO2,Pressure,SoilTemp,SoilWater,SolutionEC,Dielectricity,PoreEC,SoilEC,DC1ch,DC2ch,MASUA0010015,MASUA0010014,MASUA0010015
0,2023/05/01 00:00,,,,17.48,84.34,14.91,0,681,0,21.03,21.52,1.0216,11.42,2.0603,0.1888,,,
1,2023/05/01 01:00,,,,17.47,84.66,14.91,0,664,0,21.23,21.51,1.0234,11.42,2.0645,0.1893,,,
2,2023/05/01 02:00,1,1,0,16.99,83.06,14.48,0,654,0,21.10,21.48,1.0192,11.41,2.0587,0.1883,,,
3,2023/05/01 03:00,,,,16.81,83.86,14.33,0,669,0,21.25,21.45,1.0188,11.39,2.0611,0.1881,,,
4,2023/05/01 04:00,,,,16.01,76.28,13.65,22,650,0,20.86,21.44,1.0265,11.38,2.0777,0.1892,,,
5,2023/05/01 05:00,,,,15.57,78.31,13.30,648,668,0,20.74,21.42,1.0251,11.37,2.0770,0.1887,,,
6,2023/05/01 06:00,,,,17.37,75.02,14.82,3168,641,0,20.74,21.43,1.0297,11.38,2.0854,0.1896,,,
7,2023/05/01 07:00,,,,22.13,63.88,19.58,6267,604,0,20.67,21.43,1.0257,11.38,2.0771,0.1888,,,
8,2023/05/01 08:00,,,,22.20,60.47,19.66,11921,600,0,20.76,21.46,1.0220,11.39,2.0666,0.1884,,,
9,2023/05/01 09:00,,,,24.99,52.10,23.04,12099,579,0,20.87,21.42,1.0279,11.37,2.0827,0.1893,,,
10,2023/05/01 10:00,9,9,0,28.05,46.13,27.31,9955,568,0,21.16,21.45,1.0238,11.39,2.0709,0.1890,,,
11,2023/05/01 11:00,5,5,0,28.82,43.60,28.49,11080,566,0,21.19,21.49,1.0235,11.41,2.0668,0.1892,,,
12,2023/05/01 12:00,2,2,0,29.64,44.12,29.78,15463,567,0,21.66,21.54,1.0232,11.43,2.0618,0.1898,,,
13,2023/05/01 13:00,,,,28.14,45.22,27.45,14449,573,0,21.19,21.62,1.0218,11.48,2.0511,0.1895,,,
14,2023/05/01 14:00,2,2,0,28.49,44.02,27.98,10092,565,0,22.11,21.72,1.0143,11.54,2.0263,0.1895,,,
15,2023/05/01 15:00,1,1,0,27.38,45.63,26.32,8766,580,0,22.48,21.76,1.0101,11.56,2.0146,0.1893,,,
16,2023/05/01 16:00,,,,27.19,45.92,26.05,9552,579,0,22.65,21.69,1.0146,11.52,2.0303,0.1899,,,
17,2023/05/01 17:00,,,,24.40,49.83,22.29,2245,588,0,22.55,21.71,1.0161,11.53,2.0311,0.1902,,,
18,2023/05/01 18:00,,,,21.41,57.58,18.79,187,610,0,22.58,21.80,1.0102,11.58,2.0107,0.1896,,,
19,2023/05/01 19:00,,,,19.41,62.04,16.72,0,616,0,22.71,21.74,1.0113,11.54,2.0189,0.1895,,,
20,2023/05/01 20:00,,,,16.61,72.79,14.15,0,626,0,22.39,21.72,1.0122,11.54,2.0220,0.1894,,,
21,2023/05/01 21:00,,,,16.25,76.08,13.85,0,634,0,22.55,21.66,1.0194,11.50,2.0421,0.1905,,,
22,2023/05/01 22:00,1,1,0,15.51,77.91,13.25,1,643,0,21.81,21.62,1.0185,11.48,2.0444,0.1895,,,
23,2023/05/01 23:00,,,,15.37,80.17,13.13,0,657,0,21.92,21.56,1.0168,11.45,2.0463,0.1890,,,
24,2023/05/02 00:00,,,,14.69,74.26,12.60,0,639,0,21.69,21.66,1.0165,11.50,2.0370,0.1892,,,
25,2023/05/02 01:00,,,,13.99,54.23,12.08,0,604,0,21.78,21.52,1.0184,11.43,2.0536,0.1889,,,
26,2023/05/02 02:00,,,,13.39,52.30,11.64,0,611,0,21.08,21.48,1.0195,11.41,2.0595,0.1883,,,
27,2023/05/02 03:00,,,,12.69,54.06,11.14,0,612,0,21.14,21.39,1.0243,11.36,2.0778,0.1888,,,
28,2023/05/02 04:00,1,1,0,13.01,51.97,11.37,50,613,0,20.90,21.36,1.0235,11.34,2.0796,0.1882,,,
29,2023/05/02 05:00,1,1,0,13.72,53.91,11.88,1417,611,0,20.67,21.35,1.0196,11.33,2.0726,0.1873,,,
30,2023/05/02 06:00,,,,16.37,50.74,13.95,3241,604,0,20.20,21.34,1.0292,11.33,2.0932,0.1886,,,
31,2023/05/02 07:00,,,,20.23,45.34,17.54,4066,593,0,20.05,21.34,1.0278,11.33,2.0905,0.1882,,,
32,2023/05/02 08:00,1,1,0,23.68,42.34,21.40,15504,579,0,20.48,21.38,1.0238,11.35,2.0780,0.1881,,,
33,2023/05/02 09:00,4,4,0,26.29,37.92,24.78,9024,562,0,20.70,21.44,1.0194,11.38,2.0634,0.1878,,,
34,2023/05/02 10:00,10,9,1,26.43,37.81,24.97,5943,574,0,20.93,21.47,1.0197,11.40,2.0609,0.1882,,,
35,2023/05/02 11:00,6,6,0,27.69,37.39,26.77,8735,578,0,21.00,21.51,1.0186,11.42,2.0552,0.1882,,,
36,2023/05/02 12:00,,,,27.43,35.88,26.39,17297,557,0,21.32,21.51,1.0124,11.42,2.0427,0.1873,,,
37,2023/05/02 13:00,1,1,0,27.43,33.02,26.39,17113,570,0,21.96,21.56,1.0124,11.45,2.0375,0.1882,,,
38,2023/05/02 14:00,3,3,0,27.81,33.53,26.94,10952,554,0,21.80,21.56,1.0144,11.45,2.0421,0.1884,,,
39,2023/05/02 15:00,,,,27.28,32.82,26.17,8388,571,0,22.29,21.69,1.0106,11.52,2.0223,0.1888,,,
40,2023/05/02 16:00,,,,26.82,34.12,25.51,8419,566,0,22.53,21.67,1.0074,11.51,2.0172,0.1884,,,
41,2023/05/02 17:00,,,,24.55,41.08,22.47,2742,591,0,22.83,21.72,1.0101,11.53,2.0185,0.1893,,,
42,2023/05/02 18:00,,,,20.36,47.58,17.68,259,614,0,22.68,21.77,1.0071,11.57,2.0073,0.1889,,,
43,2023/05/02 19:00,,,,16.63,57.70,14.17,1,641,0,22.45,21.68,1.0113,11.52,2.0239,0.1891,,,
44,2023/05/02 20:00,,,,15.25,61.09,13.04,0,645,0,22.81,21.61,1.0106,11.48,2.0291,0.1889,,,
45,2023/05/02 21:00,,,,14.90,68.13,12.76,0,651,0,22.10,21.54,1.0135,11.43,2.0423,0.1883,,,
46,2023/05/02 22:00,,,,14.23,72.24,12.25,0,669,0,22.16,21.54,1.0124,11.44,2.0396,0.1882,,,
47,2023/05/02 23:00,,,,13.02,74.57,11.37,0,685,0,22.05,21.51,1.0133,11.42,2.0441,0.1882,,,
48,2023/05/03 00:00,,,,11.88,73.49,10.59,0,692,0,21.79,21.49,1.0198,11.41,2.0592,0.1890,,,
49,2023/05/03 01:00,1,1,0,11.11,71.48,10.10,0,689,0,21.50,21.43,1.0166,11.38,2.0587,0.1879,,,
50,2023/05/03 02:00,,,,10.86,68.76,9.94,0,675,0,20.93,21.37,1.0173,11.34,2.0662,0.1872,,,
51,2023/05/03 03:00,1,1,0,10.76,68.78,9.87,0,686,0,20.57,21.38,1.0195,11.35,2.0696,0.1873,,,
52,2023/05/03 04:00,,,,10.60,66.82,9.77,62,673,0,20.63,21.31,1.0187,11.31,2.0749,0.1868,,,
53,2023/05/03 05:00,,,,11.84,65.83,10.57,1441,661,0,20.13,21.33,1.0219,11.32,2.0791,0.1871,,,
54,2023/05/03 06:00,,,,15.80,60.22,13.48,3486,630,0,20.06,21.27,1.0222,11.29,2.0857,0.1868,,,
55,2023/05/03 07:00,,,,21.73,52.84,19.14,4449,616,0,19.74,21.28,1.0189,11.29,2.0782,0.1860,,,
56,2023/05/03 08:00,,,,23.88,43.31,21.64,12869,602,0,19.92,21.33,1.0212,11.32,2.0778,0.1868,,,
57,2023/05/03 09:00,,,,26.44,39.15,24.99,13099,581,0,20.56,21.33,1.0194,11.32,2.0738,0.1871,,,
58,2023/05/03 10:00,3,3,0,26.54,36.78,25.12,9911,577,0,20.28,21.33,1.0176,11.32,2.0708,0.1865,,,
59,2023/05/03 11:00,2,2,0,28.18,36.85,27.51,10398,571,0,20.88,21.39,1.0125,11.36,2.0541,0.1864,,,
60,2023/05/03 12:00,,,,27.97,39.13,27.19,10706,584,0,21.22,21.51,1.0085,11.42,2.0351,0.1865,,,
61,2023/05/03 13:00,,,,29.97,35.81,30.32,16192,576,0,21.58,21.54,1.0057,11.44,2.0261,0.1865,,,
62,2023/05/03 14:00,4,3,1,30.12,38.46,30.57,10825,574,0,22.21,21.57,1.0085,11.45,2.0292,0.1877,,,
63,2023/05/03 15:00,,,,29.40,41.93,29.40,9574,589,0,22.19,21.61,1.0051,11.47,2.0186,0.1872,,,
64,2023/05/03 16:00,1,1,0,27.93,45.30,27.13,7485,597,0,22.59,21.65,1.0034,11.50,2.0110,0.1875,,,
65,2023/05/03 17:00,,,,24.76,52.61,22.74,1986,615,0,22.60,21.70,1.0075,11.52,2.0151,0.1885,,,
66,2023/05/03 18:00,,,,20.42,66.62,17.74,237,636,0,22.47,21.60,1.0045,11.47,2.0182,0.1874,,,
67,2023/05/03 19:00,,,,19.20,67.34,16.51,1,650,0,22.77,21.61,1.0042,11.48,2.0163,0.1876,,,
68,2023/05/03 20:00,,,,18.34,70.55,15.70,0,663,0,22.28,21.55,1.0043,11.44,2.0222,0.1869,,,
69,2023/05/03 21:00,,,,17.49,76.66,14.92,0,685,0,21.66,21.58,1.0111,11.46,2.0333,0.1877,,,
70,2023/05/03 22:00,,,,16.61,80.36,14.16,0,711,0,22.06,21.57,0.9965,11.46,2.0044,0.1854,,,
71,2023/05/03 23:00,,,,16.11,81.88,13.73,0,708,0,21.52,21.48,1.0118,11.40,2.0441,0.1872,,,
72,2023/05/04 00:00,,,,15.58,82.34,13.31,0,714,0,21.53,21.48,1.0014,11.40,2.0231,0.1853,,,
73,2023/05/04 01:00,,,,14.86,82.50,12.73,0,724,0,21.79,21.48,1.0086,11.40,2.0378,0.1869,,,
74,2023/05/04 02:00,1,1,0,14.00,82.13,12.08,0,712,0,21.42,21.37,1.0084,11.35,2.0477,0.1860,,,
75,2023/05/04 03:00,,,,13.57,82.28,11.77,0,732,0,21.36,21.31,1.0097,11.31,2.0561,0.1858,,,
76,2023/05/04 04:00,,,,12.95,82.53,11.32,52,740,0,21.01,21.31,1.0102,11.31,2.0571,0.1856,,,
77,2023/05/04 05:00,1,1,0,13.71,82.60,11.87,1359,735,0,20.80,21.35,1.0124,11.33,2.0579,0.1861,,,
78,2023/05/04 06:00,,,,19.92,75.50,17.23,3495,652,0,20.22,21.31,1.0150,11.31,2.0667,0.1858,,,
79,2023/05/04 07:00,,,,23.47,63.29,21.14,4656,641,0,20.74,21.34,1.0113,11.33,2.0568,0.1857,,,
80,2023/05/04 08:00,,,,25.87,55.52,24.20,11477,630,0,20.66,21.37,1.0080,11.35,2.0469,0.1853,,,
81,2023/05/04 09:00,3,3,0,28.89,46.35,28.59,11545,587,0,20.91,21.43,0.9987,11.38,2.0223,0.1841,,,
82,2023/05/04 10:00,2,2,0,30.10,45.43,30.53,9573,572,0,21.34,21.42,1.0101,11.37,2.0461,0.1865,,,
83,2023/05/04 11:00,2,2,0,30.82,41.48,31.73,11226,572,0,21.08,21.54,1.0050,11.44,2.0247,0.1859,,,
84,2023/05/04 12:00,4,4,0,31.99,39.05,33.80,18207,573,0,21.22,21.53,1.0096,11.43,2.0351,0.1868,,,
85,2023/05/04 13:00,,,,32.26,38.44,34.29,17533,564,0,22.13,21.55,0.9999,11.44,2.0136,0.1859,,,
86,2023/05/04 14:00,2,2,0,31.66,42.00,33.20,10561,576,0,22.29,21.55,1.0022,11.44,2.0182,0.1865,,,
87,2023/05/04 15:00,2,1,1,30.44,43.35,31.10,10962,568,0,22.73,21.64,0.9990,11.49,2.0035,0.1868,,,
88,2023/05/04 16:00,,,,29.88,40.35,30.17,9530,565,0,23.51,21.79,0.9890,11.57,1.9699,0.1863,,,
89,2023/05/04 17:00,,,,27.28,45.24,26.17,2742,590,0,22.89,21.69,0.9995,11.52,1.9999,0.1872,,,
90,2023/05/04 18:00,,,,23.89,49.30,21.66,256,597,0,23.57,21.80,0.9930,11.58,1.9767,0.1872,,,
91,2023/05/04 19:00,,,,21.21,57.62,18.57,0,613,0,23.37,21.78,0.9943,11.57,1.9812,0.1872,,,
92,2023/05/04 20:00,,,,19.86,64.52,17.17,0,634,0,23.43,21.70,0.9931,11.53,1.9860,0.1866,,,
93,2023/05/04 21:00,1,1,0,18.77,71.61,16.10,0,660,0,22.73,21.66,1.0028,11.50,2.0094,0.1876,,,
94,2023/05/04 22:00,,,,17.68,77.04,15.09,0,690,0,23.28,21.57,0.9956,11.46,2.0026,0.1862,,,
95,2023/05/04 23:00,,,,16.92,79.60,14.42,0,690,0,22.88,21.54,0.9943,11.44,2.0031,0.1855,,,
96,2023/05/05 00:00,,,,16.38,80.97,13.96,0,693,0,22.45,21.55,0.9986,11.44,2.0112,0.1859,,,
97,2023/05/05 01:00,,,,15.95,81.76,13.61,0,703,0,21.88,21.48,1.0075,11.40,2.0354,0.1868,,,
98,2023/05/05 02:00,,,,15.36,82.46,13.13,0,712,0,22.04,21.52,0.9970,11.43,2.0105,0.1851,,,
99,2023/05/05 03:00,,,,14.76,83.25,12.65,0,726,0,22.10,21.48,0.9956,11.41,2.0112,0.1848,,,
100,2023/05/05 04:00,,,,14.43,83.68,12.41,48,721,0,21.76,21.40,1.0005,11.36,2.0291,0.1850,,,
101,2023/05/05 05:00,,,,14.76,83.72,12.65,1233,727,0,21.24,21.37,1.0021,11.34,2.0350,0.1847,,,
102,2023/05/05 06:00,1,0,1,20.26,76.56,17.57,3707,659,0,21.07,21.34,1.0036,11.33,2.0403,0.1847,,,
103,2023/05/05 07:00,,,,23.41,65.58,21.07,5180,639,0,21.30,21.37,1.0047,11.34,2.0406,0.1852,,,
104,2023/05/05 08:00,,,,25.63,60.77,23.89,10618,624,0,21.47,21.40,1.0014,11.36,2.0309,0.1849,,,
105,2023/05/05 09:00,2,2,0,29.35,51.97,29.32,17650,593,0,21.05,21.44,1.0052,11.38,2.0344,0.1854,,,
106,2023/05/05 10:00,4,4,0,30.28,50.48,30.83,9097,579,0,21.65,21.55,0.9958,11.44,2.0049,0.1848,,,
107,2023/05/05 11:00,9,8,1,31.81,45.85,33.47,10840,559,0,21.62,21.49,1.0003,11.41,2.0198,0.1853,,,
108,2023/05/05 12:00,4,2,2,32.79,41.99,35.25,16369,549,0,22.30,21.57,0.9938,11.46,1.9990,0.1851,,,
109,2023/05/05 13:00,,,,33.18,42.09,35.99,17431,546,0,22.65,21.63,0.9927,11.48,1.9921,0.1854,,,
110,2023/05/05 14:00,,,,32.00,42.64,33.80,10409,554,0,22.59,21.73,0.9909,11.54,1.9787,0.1856,,,
111,2023/05/05 15:00,,,,30.92,43.55,31.91,9589,556,0,23.07,21.75,0.9882,11.55,1.9714,0.1856,,,
112,2023/05/05 16:00,,,,28.82,45.79,28.48,4097,566,0,24.11,21.77,0.9880,11.56,1.9699,0.1866,,,
113,2023/05/05 17:00,,,,26.59,50.52,25.19,2285,575,0,23.85,21.82,0.9904,11.59,1.9692,0.1871,,,
114,2023/05/05 18:00,,,,24.15,55.53,21.97,261,592,0,23.70,21.81,0.9877,11.58,1.9655,0.1864,,,
115,2023/05/05 19:00,,,,22.68,54.95,20.21,0,587,0,24.07,21.70,0.9892,11.53,1.9779,0.1864,,,
116,2023/05/05 20:00,,,,22.26,54.62,19.73,0,586,0,23.55,21.75,0.9865,11.55,1.9686,0.1857,,,
117,2023/05/05 21:00,,,,21.68,56.80,19.08,0,587,0,23.62,21.76,0.9846,11.56,1.9635,0.1855,,,
118,2023/05/05 22:00,,,,21.28,58.82,18.64,0,588,0,23.27,21.72,0.9925,11.53,1.9833,0.1864,,,
119,2023/05/05 23:00,,,,20.95,60.25,18.29,0,588,0,23.14,21.70,0.9941,11.52,1.9882,0.1865,,,
120,2023/05/06 00:00,,,,20.87,61.35,18.21,0,594,0,23.35,21.59,0.9940,11.46,1.9983,0.1861,,,
121,2023/05/06 01:00,,,,20.57,62.76,17.89,0,590,0,22.67,21.57,0.9950,11.45,2.0021,0.1856,,,
122,2023/05/06 02:00,,,,19.99,65.15,17.30,0,598,0,23.07,21.55,0.9940,11.44,2.0015,0.1856,,,
123,2023/05/06 03:00,,,,19.56,66.70,16.86,0,604,0,23.09,21.53,0.9946,11.43,2.0049,0.1856,,,
124,2023/05/06 04:00,,,,18.95,68.24,16.27,38,616,0,22.95,21.52,0.9947,11.42,2.0062,0.1855,,,
125,2023/05/06 05:00,,,,18.64,70.12,15.98,1143,630,0,22.62,21.50,0.9962,11.42,2.0105,0.1854,,,
126,2023/05/06 06:00,,,,21.35,73.02,18.73,3965,619,0,22.67,21.49,0.9948,11.41,2.0092,0.1851,,,
127,2023/05/06 07:00,,,,24.09,66.02,21.91,6427,601,0,22.44,21.48,0.9956,11.40,2.0114,0.1850,,,
128,2023/05/06 08:00,,,,25.71,54.87,23.99,9123,584,0,21.84,21.50,0.9937,11.42,2.0054,0.1843,,,
129,2023/05/06 09:00,,,,25.81,51.17,24.12,7990,584,0,22.81,21.56,0.9912,11.45,1.9951,0.1849,,,
130,2023/05/06 10:00,,,,27.33,49.45,26.25,9899,566,0,22.45,21.58,0.9915,11.46,1.9935,0.1848,,,
131,2023/05/06 11:00,1,0,1,29.92,45.23,30.23,14597,552,0,22.82,21.57,0.9951,11.45,2.0024,0.1857,,,
132,2023/05/06 12:00,3,2,1,30.70,46.83,31.54,11239,540,0,23.08,21.65,0.9924,11.49,1.9896,0.1859,,,
133,2023/05/06 13:00,,,,29.62,45.56,29.75,10581,546,0,23.34,21.73,0.9841,11.54,1.9654,0.1850,,,
134,2023/05/06 14:00,,,,30.72,47.09,31.58,4328,541,0,23.94,21.77,0.9830,11.56,1.9594,0.1855,,,
135,2023/05/06 15:00,,,,29.37,50.50,29.35,4879,549,0,23.52,21.75,0.9866,11.55,1.9685,0.1857,,,
136,2023/05/06 16:00,1,1,0,30.49,46.78,31.18,9660,534,0,23.88,21.76,0.9833,11.56,1.9610,0.1854,,,
137,2023/05/06 17:00,,,,27.89,50.49,27.07,2725,564,0,23.79,21.77,0.9890,11.56,1.9717,0.1865,,,
138,2023/05/06 18:00,,,,25.38,57.92,23.55,253,579,0,24.05,21.81,0.9846,11.59,1.9590,0.1861,,,
139,2023/05/06 19:00,,,,24.31,60.52,22.17,0,588,0,24.06,21.80,0.9836,11.58,1.9577,0.1859,,,
140,2023/05/06 20:00,,,,24.10,59.79,21.92,0,586,0,23.98,21.79,0.9860,11.57,1.9641,0.1862,,,
141,2023/05/06 21:00,,,,23.72,61.53,21.45,0,586,0,23.82,21.77,0.9887,11.56,1.9708,0.1865,,,
142,2023/05/06 22:00,1,1,0,23.51,63.32,21.20,0,587,0,23.23,21.78,0.9869,11.57,1.9663,0.1857,,,
143,2023/05/06 23:00,,,,22.96,68.34,20.53,0,597,0,23.52,21.65,0.9898,11.50,1.9840,0.1858,,,
144,2023/05/07 00:00,,,,22.11,75.05,19.56,0,606,0,23.58,21.71,0.9863,11.53,1.9711,0.1855,,,
145,2023/05/07 01:00,,,,21.95,76.05,19.38,0,609,0,23.68,21.69,0.9848,11.52,1.9707,0.1852,,,
146,2023/05/07 02:00,,,,22.08,76.14,19.53,0,613,0,22.79,21.61,0.9878,11.48,1.9836,0.1846,,,
147,2023/05/07 03:00,,,,21.54,79.75,18.92,0,635,0,23.08,21.59,0.9862,11.47,1.9818,0.1844,,,
148,2023/05/07 04:00,,,,20.99,83.71,18.34,11,657,0,22.98,21.56,0.9869,11.45,1.9868,0.1843,,,
149,2023/05/07 05:00,,,,21.00,85.39,18.35,523,665,0,23.24,21.56,0.9843,11.45,1.9812,0.1840,,,
150,2023/05/07 06:00,,,,21.76,85.60,19.17,1861,659,0,23.13,21.53,0.9857,11.43,1.9866,0.1840,,,
151,2023/05/07 07:00,,,,22.66,84.99,20.19,2659,643,0,22.89,21.52,0.9893,11.42,1.9952,0.1844,,,
152,2023/05/07 08:00,,,,23.64,82.77,21.35,5187,613,0,22.86,21.57,0.9861,11.45,1.9843,0.1841,,,
153,2023/05/07 09:00,,,,23.53,80.31,21.21,6320,612,0,22.87,21.56,0.9810,11.45,1.9744,0.1831,,,
154,2023/05/07 10:00,,,,22.86,78.07,20.42,6354,596,0,23.10,21.54,0.9846,11.44,1.9833,0.1839,,,
155,2023/05/07 11:00,,,,21.13,80.44,18.48,3155,604,0,22.73,21.54,0.9850,11.44,1.9846,0.1836,,,
156,2023/05/07 12:00,1,1,0,19.44,82.19,16.75,2144,613,0,23.10,21.51,0.9819,11.42,1.9806,0.1832,,,
157,2023/05/07 13:00,,,,19.52,81.89,16.83,3334,601,0,23.03,21.53,0.9849,11.43,1.9848,0.1838,,,
158,2023/05/07 14:00,,,,19.31,82.13,16.62,2429,605,0,22.76,21.53,0.9844,11.43,1.9840,0.1835,,,
159,2023/05/07 15:00,,,,18.70,83.33,16.04,1475,618,0,22.32,21.53,0.9868,11.43,1.9886,0.1836,,,
160,2023/05/07 16:00,,,,18.49,83.60,15.84,1221,626,0,22.73,21.51,0.9846,11.42,1.9866,0.1834,,,
161,2023/05/07 17:00,,,,17.60,83.68,15.02,398,640,0,21.89,21.47,0.9865,11.40,1.9937,0.1828,,,
162,2023/05/07 18:00,,,,16.51,83.92,14.07,39,644,0,22.66,21.46,0.9823,11.39,1.9866,0.1827,,,
163,2023/05/07 19:00,,,,15.42,84.30,13.17,0,636,0,21.82,21.47,0.9844,11.40,1.9896,0.1824,,,
164,2023/05/07 20:00,,,,15.04,85.02,12.88,0,634,0,22.17,21.40,0.9848,11.36,1.9973,0.1824,,,
165,2023/05/07 21:00,,,,14.71,84.69,12.62,0,636,0,22.14,21.36,0.9860,11.34,2.0031,0.1824,,,
166,2023/05/07 22:00,,,,14.25,84.60,12.26,0,631,0,21.96,21.35,0.9855,11.33,2.0034,0.1821,,,
167,2023/05/07 23:00,,,,13.74,84.65,11.89,0,635,0,21.45,21.33,0.9862,11.32,2.0066,0.1817,,,
168,2023/05/08 00:00,,,,13.47,84.57,11.69,0,628,0,21.42,21.32,0.9882,11.32,2.0113,0.1820,,,
169,2023/05/08 01:00,,,,12.97,84.32,11.34,0,627,0,20.78,21.31,0.9884,11.31,2.0125,0.1815,,,
170,2023/05/08 02:00,,,,12.87,84.64,11.27,0,629,0,20.91,21.26,0.9926,11.28,2.0265,0.1820,,,
171,2023/05/08 03:00,,,,12.84,85.10,11.25,0,630,0,21.02,21.27,0.9867,11.29,2.0135,0.1811,,,
172,2023/05/08 04:00,,,,12.69,84.86,11.14,10,622,0,20.84,21.24,0.9862,11.27,2.0152,0.1807,,,
173,2023/05/08 05:00,,,,12.72,84.96,11.16,215,625,0,20.52,21.17,0.9951,11.24,2.0398,0.1817,,,
174,2023/05/08 06:00,1,1,0,13.05,85.27,11.39,936,627,0,20.37,21.21,0.9923,11.26,2.0306,0.1813,,,
175,2023/05/08 07:00,,,,15.65,85.65,13.36,3303,602,0,19.97,21.17,0.9927,11.24,2.0344,0.1808,,,
176,2023/05/08 08:00,,,,18.09,78.78,15.46,6150,560,0,20.13,21.18,0.9936,11.24,2.0363,0.1811,,,
177,2023/05/08 09:00,,,,21.15,73.20,18.51,11599,549,0,20.13,21.22,0.9916,11.26,2.0282,0.1810,,,
178,2023/05/08 10:00,2,2,0,23.36,67.13,21.02,12821,551,0,20.12,21.23,0.9986,11.27,2.0409,0.1823,,,
179,2023/05/08 11:00,3,3,0,23.33,67.68,20.98,11645,552,0,20.19,21.21,0.9908,11.26,2.0276,0.1808,,,
180,2023/05/08 12:00,1,1,0,24.34,62.13,22.22,19703,545,0,20.69,21.29,0.9918,11.30,2.0211,0.1819,,,
181,2023/05/08 13:00,1,1,0,27.27,53.93,26.17,24589,548,0,20.23,21.33,0.9921,11.32,2.0185,0.1818,,,
182,2023/05/08 14:00,1,1,0,23.77,46.17,21.50,11565,560,0,21.17,21.33,0.9866,11.33,2.0070,0.1816,,,
183,2023/05/08 15:00,3,3,0,24.94,42.15,22.98,21289,556,0,21.24,21.31,0.9932,11.31,2.0226,0.1827,,,
184,2023/05/08 16:00,1,0,1,24.46,45.78,22.36,10952,556,0,21.58,21.40,0.9901,11.36,2.0078,0.1829,,,
185,2023/05/08 17:00,,,,18.80,63.75,16.13,3067,585,0,21.69,21.45,0.9854,11.39,1.9939,0.1823,,,
186,2023/05/08 18:00,,,,17.71,63.32,15.12,503,603,0,21.70,21.39,0.9901,11.35,2.0091,0.1829,,,
187,2023/05/08 19:00,,,,14.93,69.77,12.78,1,621,0,21.59,21.38,0.9905,11.35,2.0104,0.1829,,,
188,2023/05/08 20:00,,,,13.58,73.48,11.77,0,637,0,21.10,21.32,0.9961,11.32,2.0273,0.1832,,,
189,2023/05/08 21:00,,,,12.92,72.52,11.30,0,637,0,20.71,21.34,0.9927,11.33,2.0190,0.1823,,,
190,2023/05/08 22:00,,,,12.59,75.31,11.08,0,647,0,20.93,21.28,0.9929,11.30,2.0245,0.1822,,,
191,2023/05/08 23:00,,,,12.19,78.14,10.80,0,662,0,20.26,21.22,0.9970,11.26,2.0393,0.1821,,,
192,2023/05/09 00:00,,,,12.02,75.31,10.69,0,645,0,20.57,21.25,0.9950,11.28,2.0320,0.1821,,,
193,2023/05/09 01:00,,,,11.57,73.61,10.39,0,640,0,20.09,21.17,0.9949,11.24,2.0394,0.1813,,,
194,2023/05/09 02:00,1,1,0,11.11,76.43,10.10,0,656,0,19.74,21.12,0.9974,11.21,2.0494,0.1812,,,
195,2023/05/09 03:00,,,,10.50,79.76,9.71,0,679,0,19.91,21.08,0.9997,11.18,2.0584,0.1815,,,
196,2023/05/09 04:00,,,,10.27,81.30,9.57,64,704,0,19.69,21.11,0.9953,11.20,2.0462,0.1807,,,
197,2023/05/09 05:00,1,1,0,10.99,81.89,10.02,1178,694,0,19.26,21.08,0.9975,11.19,2.0531,0.1806,,,
198,2023/05/09 06:00,,,,15.81,76.87,13.49,3519,620,0,18.76,21.07,1.0002,11.18,2.0604,0.1806,,,
199,2023/05/09 07:00,,,,21.71,58.15,19.12,4795,588,0,18.85,21.10,1.0044,11.20,2.0659,0.1816,,,
200,2023/05/09 08:00,1,1,0,23.48,46.19,21.15,7739,578,0,19.25,21.12,1.0038,11.21,2.0628,0.1819,,,
201,2023/05/09 09:00,4,3,1,25.58,40.03,23.81,9692,563,0,19.65,21.11,0.9955,11.20,2.0469,0.1807,,,
202,2023/05/09 10:00,4,3,1,26.32,38.79,24.82,8953,570,0,19.93,21.21,0.9941,11.26,2.0339,0.1812,,,
203,2023/05/09 11:00,,,,27.43,38.57,26.39,14440,558,0,19.97,21.25,0.9912,11.28,2.0241,0.1809,,,
204,2023/05/09 12:00,,,,27.74,36.22,26.84,24401,563,0,20.30,21.22,0.9961,11.26,2.0368,0.1820,,,
205,2023/05/09 13:00,,,,27.52,35.99,26.53,18325,556,0,20.91,21.33,0.9898,11.32,2.0136,0.1819,,,
206,2023/05/09 14:00,,,,25.91,39.22,24.25,12427,556,0,21.34,21.37,0.9887,11.35,2.0073,0.1823,,,
207,2023/05/09 15:00,1,1,0,25.24,35.64,23.36,12184,562,0,21.27,21.34,0.9910,11.33,2.0152,0.1825,,,
208,2023/05/09 16:00,,,,24.33,35.49,22.20,6562,558,0,21.29,21.37,0.9908,11.34,2.0125,0.1826,,,
209,2023/05/09 17:00,,,,22.51,36.83,20.01,4191,561,0,21.84,21.37,0.9853,11.35,2.0005,0.1821,,,
210,2023/05/09 18:00,,,,18.41,44.05,15.76,496,581,0,21.86,21.34,0.9899,11.33,2.0129,0.1828,,,
211,2023/05/09 19:00,,,,16.09,53.21,13.72,1,602,0,21.64,21.35,0.9897,11.33,2.0117,0.1826,,,
212,2023/05/09 20:00,,,,15.00,62.24,12.84,0,615,0,21.35,21.33,0.9906,11.32,2.0154,0.1824,,,
213,2023/05/09 21:00,,,,14.02,72.24,12.10,0,641,0,21.07,21.31,0.9910,11.31,2.0182,0.1822,,,
214,2023/05/09 22:00,,,,13.09,76.08,11.42,0,665,0,21.08,21.30,0.9913,11.31,2.0194,0.1822,,,
215,2023/05/09 23:00,,,,12.35,79.16,10.91,0,689,0,20.71,21.24,0.9929,11.28,2.0283,0.1818,,,
216,2023/05/10 00:00,,,,11.92,79.95,10.62,0,708,0,20.33,21.23,0.9926,11.27,2.0293,0.1814,,,
217,2023/05/10 01:00,,,,11.31,80.69,10.22,0,708,0,20.23,21.12,0.9963,11.21,2.0472,0.1814,,,
218,2023/05/10 02:00,,,,10.94,80.58,9.99,0,687,0,19.88,21.11,0.9995,11.20,2.0547,0.1817,,,
219,2023/05/10 03:00,1,1,0,10.42,80.97,9.67,0,704,0,19.70,21.07,1.0003,11.18,2.0604,0.1814,,,
220,2023/05/10 04:00,,,,10.05,80.68,9.44,183,721,0,19.07,21.11,0.9987,11.20,2.0529,0.1808,,,
221,2023/05/10 05:00,,,,11.42,80.71,10.29,2140,700,0,19.23,21.07,0.9977,11.18,2.0550,0.1806,,,
222,2023/05/10 06:00,,,,18.24,71.35,15.60,4651,623,0,19.19,21.06,1.0008,11.17,2.0624,0.1810,,,
223,2023/05/10 07:00,,,,21.67,58.59,19.07,5832,610,0,19.32,21.07,0.9979,11.18,2.0552,0.1807,,,
224,2023/05/10 08:00,,,,23.64,50.69,21.35,8960,594,0,19.11,21.07,0.9994,11.18,2.0587,0.1807,,,
225,2023/05/10 09:00,2,2,0,26.23,44.37,24.70,10162,588,0,19.81,21.14,0.9962,11.22,2.0449,0.1812,,,
226,2023/05/10 10:00,1,1,0,28.30,43.39,27.68,9985,581,0,19.99,21.19,0.9933,11.25,2.0344,0.1810,,,
227,2023/05/10 11:00,1,0,1,30.02,40.55,30.41,15183,560,0,20.59,21.29,0.9916,11.30,2.0215,0.1817,,,
228,2023/05/10 12:00,6,5,1,31.42,37.95,32.78,24150,555,0,20.41,21.32,0.9911,11.32,2.0175,0.1817,,,
229,2023/05/10 13:00,,,,31.07,35.31,32.17,18558,544,0,21.20,21.35,0.9851,11.34,2.0019,0.1814,,,
230,2023/05/10 14:00,3,3,0,30.31,36.00,30.88,13038,543,0,21.72,21.38,0.9849,11.35,1.9990,0.1820,,,
231,2023/05/10 15:00,1,0,1,28.84,37.27,28.51,8565,551,0,21.21,21.35,0.9883,11.33,2.0091,0.1820,,,
232,2023/05/10 16:00,,,,27.25,39.66,26.13,8304,565,0,21.60,21.48,0.9839,11.41,1.9876,0.1822,,,
233,2023/05/10 17:00,,,,26.36,40.38,24.88,5522,572,0,22.44,21.48,0.9811,11.40,1.9820,0.1823,,,
234,2023/05/10 18:00,,,,22.91,49.41,20.48,529,588,0,22.54,21.46,0.9835,11.39,1.9886,0.1828,,,
235,2023/05/10 19:00,,,,21.02,54.51,18.37,1,619,0,22.22,21.48,0.9845,11.41,1.9888,0.1828,,,
236,2023/05/10 20:00,,,,19.91,60.88,17.22,0,623,0,22.31,21.45,0.9804,11.39,1.9832,0.1820,,,
237,2023/05/10 21:00,,,,18.47,66.27,15.82,0,623,0,22.03,21.38,0.9890,11.35,2.0070,0.1830,,,
238,2023/05/10 22:00,,,,17.75,71.04,15.15,0,635,0,21.57,21.38,0.9855,11.35,2.0002,0.1819,,,
239,2023/05/10 23:00,,,,17.34,76.64,14.79,0,661,0,22.02,21.35,0.9819,11.33,1.9960,0.1815,,,
240,2023/05/11 00:00,,,,16.74,78.70,14.27,0,666,0,21.83,21.35,0.9865,11.33,2.0053,0.1822,,,
241,2023/05/11 01:00,,,,15.82,80.64,13.50,0,679,0,21.65,21.29,0.9869,11.30,2.0119,0.1818,,,
242,2023/05/11 02:00,,,,15.64,81.66,13.35,0,692,0,21.45,21.35,0.9839,11.33,2.0000,0.1814,,,
243,2023/05/11 03:00,,,,15.21,81.98,13.01,0,692,0,20.63,21.28,0.9887,11.30,2.0161,0.1812,,,
244,2023/05/11 04:00,,,,14.15,75.58,12.19,126,665,0,21.09,21.29,0.9843,11.30,2.0059,0.1808,,,
245,2023/05/11 05:00,,,,13.91,66.29,12.02,2174,638,0,20.61,21.20,0.9902,11.25,2.0269,0.1810,,,
246,2023/05/11 06:00,,,,18.15,50.53,15.52,5031,613,0,20.72,21.19,0.9879,11.25,2.0229,0.1806,,,
247,2023/05/11 07:00,,,,20.89,42.13,18.23,7274,598,0,20.28,21.23,0.9897,11.27,2.0229,0.1808,,,
248,2023/05/11 08:00,,,,24.53,40.86,22.45,10046,594,0,20.62,21.26,0.9867,11.28,2.0141,0.1807,,,